Total_Precipitation_Accumulation
0.49 0.77 1.05 1.10 1.12 1.03 0.85 0.83 0.85 0.78 0.73 0.81 0.82 0.85 0.89 0.89 0.92 0.84 0.67 0.62 0.62 0.62 0.64 0.64 0.67 0.72 0.73 0.72 0.69 0.67 0.71 0.78 0.89 1.10 1.37 1.77 1.99 2.12 2.11 2.11 2.02 1.79 1.55 1.57
0.61 0.62 0.53 0.59 0.63 0.72 0.72 0.78 0.79 0.73 0.64 0.66 0.65 0.67 0.68 0.67 0.62 0.58 0.52 0.49 0.52 0.53 0.61 0.58 0.56 0.59 0.63 0.61 0.63 0.73 0.71 0.75 0.86 1.11 1.38 1.69 2.02 2.08 2.10 2.11 2.07 1.95 1.79 1.78
0.53 0.47 0.43 0.54 0.60 0.66 0.69 0.75 0.74 0.78 0.73 0.65 0.62 0.68 0.67 0.60 0.50 0.44 0.42 0.41 0.43 0.43 0.49 0.52 0.51 0.51 0.55 0.53 0.49 0.60 0.69 0.79 1.03 1.33 1.57 1.73 2.00 2.08 2.12 2.08 2.09 2.11 2.04 1.94
0.58 0.44 0.43 0.54 0.54 0.55 0.74 0.52 0.47 0.55 0.80 0.83 0.63 0.79 0.65 0.53 0.55 0.49 0.43 0.40 0.41 0.43 0.43 0.43 0.47 0.48 0.45 0.42 0.39 0.46 0.57 0.79 1.14 1.47 1.67 1.88 2.22 2.27 2.18 2.18 2.14 2.15 2.17 2.14
0.56 0.41 0.42 0.48 0.42 0.39 0.53 0.43 0.43 0.49 0.66 0.71 0.54 0.57 0.58 0.49 0.55 0.55 0.49 0.47 0.42 0.38 0.35 0.34 0.36 0.37 0.38 0.41 0.42 0.46 0.62 0.87 1.17 1.39 1.64 1.99 2.18 2.24 2.33 2.22 2.17 2.16 2.21 2.23
0.47 0.34 0.35 0.38 0.34 0.33 0.37 0.47 0.53 0.54 0.66 0.70 0.38 0.45 0.57 0.49 0.41 0.43 0.45 0.44 0.39 0.35 0.33 0.34 0.36 0.37 0.39 0.42 0.48 0.58 0.75 0.92 1.17 1.38 1.62 1.80 2.00 2.10 2.20 2.26 2.17 2.14 2.19 2.28
0.45 0.36 0.28 0.26 0.35 0.35 0.39 0.69 0.93 0.92 0.92 0.71 0.31 0.43 0.57 0.40 0.31 0.33 0.36 0.39 0.38 0.39 0.41 0.45 0.47 0.55 0.63 0.65 0.67 0.76 0.88 1.03 1.17 1.30 1.44 1.50 1.64 1.77 1.77 1.92 1.98 2.09 2.09 2.13
0.41 0.39 0.24 0.22 0.29 0.36 0.35 0.54 0.88 0.93 0.79 0.61 0.45 0.63 0.62 0.41 0.34 0.35 0.35 0.40 0.43 0.51 0.57 0.67 0.75 0.83 0.93 0.94 0.95 1.02 1.08 1.10 1.15 1.22 1.28 1.33 1.40 1.47 1.50 1.52 1.51 1.66 1.81 1.82
0.39 0.36 0.19 0.19 0.23 0.28 0.34 0.40 0.46 0.61 0.52 0.54 0.53 0.65 0.59 0.43 0.42 0.42 0.44 0.48 0.57 0.74 0.83 0.93 1.04 1.06 1.06 1.07 1.05 1.07 1.11 1.10 1.11 1.16 1.17 1.10 1.09 1.17 1.26 1.26 1.32 1.34 1.40 1.39
0.36 0.40 0.23 0.19 0.26 0.26 0.30 0.41 0.55 0.83 0.93 0.81 0.66 0.76 0.76 0.60 0.50 0.47 0.54 0.65 0.81 1.06 1.19 1.30 1.40 1.33 1.25 1.27 1.33 1.24 1.15 1.09 1.06 1.07 1.11 1.03 0.99 1.05 1.09 1.05 1.10 1.07 1.07 1.07
0.30 0.44 0.36 0.24 0.25 0.28 0.33 0.45 0.62 0.89 0.97 1.13 1.17 1.21 0.92 0.74 0.68 0.76 0.90 1.01 1.20 1.44 1.59 1.68 1.69 1.60 1.42 1.30 1.30 1.26 1.16 1.05 0.94 0.93 1.01 1.03 0.95 0.98 1.01 0.99 0.92 0.88 0.89 0.94
0.27 0.45 0.43 0.27 0.21 0.25 0.41 0.60 0.80 1.25 1.23 1.10 1.29 1.42 1.02 0.82 0.81 0.84 0.94 1.11 1.32 1.43 1.50 1.54 1.50 1.49 1.38 1.28 1.19 1.18 1.09 0.93 0.88 0.93 0.96 0.99 0.89 0.86 0.91 0.90 0.93 0.82 0.76 0.78
0.37 0.53 0.64 0.55 0.49 0.47 0.56 0.62 0.73 0.89 1.11 1.19 1.39 1.55 1.07 0.82 0.80 0.85 0.98 1.07 1.12 1.12 1.21 1.29 1.34 1.23 1.18 1.12 1.06 1.17 1.19 1.07 1.02 1.05 1.15 1.07 0.91 0.89 0.91 0.86 0.92 0.85 0.79 0.78
0.42 0.50 0.60 0.73 0.71 0.68 0.70 0.62 0.58 0.75 1.02 1.07 1.14 1.22 0.96 0.78 0.76 0.79 0.87 0.92 0.99 1.01 1.05 1.08 1.13 1.08 1.09 1.04 1.01 1.14 1.18 1.18 1.22 1.28 1.29 1.15 1.02 0.91 0.87 0.85 0.88 0.86 0.85 0.85
0.37 0.36 0.32 0.33 0.31 0.39 0.59 0.69 0.61 0.65 0.76 1.02 0.91 0.79 0.75 0.68 0.70 0.73 0.79 0.82 0.84 0.88 0.89 0.82 0.80 0.81 0.87 0.86 0.81 0.88 0.98 1.06 1.17 1.22 1.16 1.08 0.97 0.84 0.78 0.82 0.81 0.85 0.89 0.88
0.29 0.27 0.21 0.17 0.16 0.25 0.50 0.60 0.60 0.59 0.59 0.62 0.56 0.55 0.45 0.43 0.49 0.54 0.60 0.58 0.60 0.65 0.65 0.61 0.57 0.56 0.61 0.55 0.57 0.61 0.71 0.87 1.05 1.13 1.02 0.90 0.84 0.82 0.76 0.73 0.70 0.71 0.74 0.75
0.26 0.30 0.33 0.25 0.18 0.28 0.51 0.51 0.54 0.41 0.29 0.29 0.36 0.37 0.29 0.30 0.39 0.44 0.52 0.52 0.48 0.51 0.54 0.55 0.53 0.49 0.51 0.47 0.49 0.57 0.65 0.78 0.86 0.89 0.83 0.74 0.71 0.68 0.62 0.60 0.61 0.65 0.67 0.68
0.22 0.34 0.47 0.38 0.36 0.57 0.69 0.53 0.46 0.39 0.24 0.17 0.20 0.22 0.22 0.25 0.33 0.35 0.40 0.46 0.43 0.40 0.44 0.49 0.51 0.49 0.50 0.54 0.57 0.67 0.73 0.73 0.75 0.79 0.78 0.72 0.65 0.60 0.55 0.51 0.53 0.64 0.66 0.63
0.24 0.35 0.51 0.49 0.51 0.55 0.52 0.36 0.35 0.44 0.42 0.20 0.16 0.17 0.17 0.20 0.26 0.26 0.28 0.32 0.32 0.28 0.25 0.28 0.32 0.34 0.40 0.44 0.49 0.51 0.53 0.54 0.55 0.58 0.64 0.60 0.51 0.53 0.56 0.53 0.57 0.62 0.63 0.66
0.37 0.38 0.55 0.55 0.58 0.61 0.44 0.21 0.18 0.34 0.57 0.26 0.13 0.11 0.10 0.13 0.21 0.18 0.16 0.17 0.17 0.17 0.16 0.15 0.16 0.17 0.21 0.26 0.39 0.44 0.41 0.35 0.34 0.37 0.43 0.45 0.41 0.44 0.51 0.60 0.66 0.63 0.60 0.64
0.33 0.39 0.51 0.64 0.75 0.80 0.54 0.27 0.22 0.47 0.58 0.26 0.12 0.08 0.08 0.09 0.10 0.10 0.11 0.12 0.11 0.12 0.14 0.15 0.14 0.15 0.18 0.24 0.28 0.31 0.37 0.33 0.31 0.32 0.34 0.36 0.35 0.37 0.46 0.51 0.50 0.50 0.53 0.56
0.45 0.56 0.68 0.81 1.01 1.12 0.70 0.47 0.46 0.43 0.28 0.17 0.11 0.09 0.09 0.10 0.09 0.09 0.10 0.10 0.09 0.09 0.11 0.12 0.13 0.16 0.21 0.22 0.21 0.22 0.25 0.26 0.28 0.28 0.31 0.31 0.28 0.27 0.30 0.36 0.40 0.43 0.44 0.46
0.45 0.70 0.88 0.86 0.88 0.77 0.55 0.46 0.37 0.30 0.23 0.14 0.13 0.12 0.10 0.10 0.08 0.08 0.08 0.09 0.09 0.08 0.09 0.11 0.16 0.20 0.23 0.22 0.19 0.20 0.21 0.24 0.29 0.29 0.29 0.29 0.27 0.26 0.27 0.32 0.35 0.39 0.43 0.45
0.26 0.32 0.39 0.40 0.40 0.37 0.31 0.27 0.24 0.21 0.19 0.14 0.13 0.13 0.14 0.13 0.12 0.11 0.10 0.10 0.11 0.10 0.10 0.12 0.17 0.20 0.21 0.21 0.22 0.23 0.22 0.22 0.25 0.26 0.26 0.26 0.27 0.28 0.27 0.30 0.35 0.41 0.41 0.38
0.21 0.21 0.24 0.23 0.20 0.20 0.20 0.19 0.19 0.19 0.16 0.12 0.11 0.12 0.15 0.15 0.12 0.11 0.11 0.14 0.15 0.13 0.11 0.13 0.15 0.19 0.20 0.21 0.23 0.24 0.23 0.21 0.22 0.23 0.22 0.22 0.23 0.26 0.26 0.24 0.26 0.33 0.36 0.34
0.17 0.23 0.24 0.19 0.12 0.15 0.18 0.15 0.15 0.17 0.14 0.13 0.13 0.14 0.14 0.11 0.11 0.11 0.11 0.16 0.18 0.14 0.13 0.14 0.14 0.17 0.18 0.19 0.23 0.25 0.28 0.27 0.24 0.23 0.22 0.23 0.23 0.24 0.24 0.23 0.24 0.27 0.27 0.31